RH
23 21 20 19 20 17 17 25 27 25 22 18 14 15 25 22 20 20 17 17 20 35 47 45 38 32 26 15 16 18 17 16 22 24 23 22 22 22 18 15 14 13 10 9 9 11 16 23 26
25 24 21 20 20 20 21 24 26 26 23 18 16 16 16 15 16 18 18 21 36 41 42 44 44 39 36 31 17 17 19 18 18 22 25 26 25 25 23 20 16 16 14 12 11 11 13 15 18
28 25 23 22 20 21 23 24 25 26 25 22 16 18 19 18 18 18 19 20 19 20 22 24 23 22 27 38 35 19 19 20 18 18 23 25 27 27 26 24 21 17 17 16 14 14 15 15 16
31 28 25 24 22 24 25 25 23 24 25 24 17 19 19 19 19 20 20 21 21 20 21 20 20 20 19 25 42 39 26 23 22 20 19 22 24 27 27 26 24 22 18 18 17 16 17 19 20
34 32 30 26 25 27 27 26 24 25 25 24 22 20 19 21 20 20 20 21 23 22 23 22 22 23 22 19 24 41 43 35 28 26 23 20 20 22 26 25 25 24 22 18 18 19 19 19 21
40 35 33 29 29 30 32 32 28 29 29 26 21 20 19 20 21 21 21 21 23 24 24 24 25 26 26 26 25 24 44 46 38 32 30 28 23 21 20 23 23 24 24 21 19 19 20 21 20
41 41 38 35 34 36 35 34 32 29 30 27 23 22 22 22 23 24 25 26 28 27 28 28 28 28 27 27 27 28 27 31 53 44 34 33 31 27 23 21 21 22 24 23 21 20 20 21 21
37 42 34 34 35 39 39 38 36 32 30 27 26 27 26 27 26 26 26 26 27 29 30 28 26 26 25 25 26 26 26 27 20 50 49 39 34 32 28 24 21 20 23 24 24 22 21 20 20
20 33 20 20 27 37 39 40 40 39 32 30 30 30 30 29 28 27 25 25 24 25 28 28 27 26 27 27 27 26 26 25 27 21 39 54 42 38 36 30 27 23 22 24 25 25 24 22 21
23 16 15 16 24 26 28 32 28 27 36 37 35 32 30 32 29 28 27 26 26 27 27 27 30 29 29 27 28 28 28 28 26 26 24 39 60 49 43 39 36 32 27 23 24 26 26 24 22
15 11 7 7 10 13 14 13 13 9 8 13 27 34 33 32 32 31 29 29 28 28 28 28 26 27 27 27 28 29 29 28 27 28 31 28 46 62 53 47 44 41 37 30 25 25 27 27 24
8 8 8 8 8 8 12 9 10 6 6 5 4 6 20 32 32 31 30 29 29 29 30 30 29 28 28 28 29 29 32 27 26 27 36 34 34 55 64 61 56 52 51 46 36 29 27 29 30
7 7 6 6 7 7 9 7 8 6 4 4 4 5 4 5 11 21 30 32 32 31 31 32 34 34 32 31 36 41 38 29 28 28 45 40 36 45 65 66 64 63 63 59 54 44 33 31 33
7 6 6 6 6 7 6 5 6 7 6 8 10 16 18 15 10 8 8 8 10 13 18 23 27 31 34 39 40 44 46 39 33 30 33 33 36 46 62 71 69 63 62 62 62 58 51 39 36
8 9 8 7 5 6 8 9 11 13 21 21 18 16 14 12 9 7 6 7 10 13 14 16 28 36 34 35 38 48 46 43 38 38 40 41 38 55 72 88 82 78 74 71 67 64 58 51 43
8 12 8 8 9 12 11 13 17 22 17 11 10 9 12 9 9 8 7 6 6 5 8 22 29 39 42 37 37 40 40 44 39 39 41 42 42 40 39 64 91 94 85 88 82 76 68 67 62
10 10 12 14 12 17 20 24 19 22 25 22 16 14 13 11 10 8 7 7 7 6 5 5 11 27 38 43 37 38 39 41 42 40 37 36 36 35 35 34 34 60 89 95 94 93 88 81 80
12 15 21 19 17 23 20 24 34 31 33 21 18 17 15 14 12 10 10 10 9 8 7 6 12 28 41 46 42 41 37 39 38 35 35 35 35 34 35 34 27 30 34 75 88 92 90 91 93
21 22 30 21 25 35 28 48 35 39 23 25 23 24 21 18 18 17 17 18 18 16 14 10 14 40 62 59 52 51 48 43 42 42 41 38 35 36 36 34 23 22 25 28 60 83 88 88 90
24 33 23 28 31 50 56 47 49 42 37 32 32 30 27 26 24 25 27 25 25 28 28 27 38 68 90 97 74 66 63 72 56 52 46 39 35 36 37 22 12 13 18 22 29 37 56 81 97
33 29 26 48 52 55 62 66 62 59 54 45 40 36 35 33 34 34 37 41 40 54 49 59 87 100 100 100 99 97 87 63 60 50 42 38 37 38 37 14 10 9 10 12 15 20 25 28 31
42 30 45 60 71 72 75 64 62 69 64 52 47 44 37 36 37 45 62 74 87 79 100 98 96 99 99 100 100 94 72 68 49 42 39 34 37 41 34 15 10 9 10 10 9 8 10 13 18
54 52 60 74 79 84 87 84 96 73 64 55 46 37 37 41 50 61 87 93 96 90 96 90 99 87 98 100 100 95 81 75 40 34 31 31 48 48 46 16 14 12 9 6 8 9 7 6 6
61 73 78 77 84 81 74 75 81 70 56 54 51 47 44 51 64 79 91 96 99 100 97 99 99 95 92 98 100 98 90 89 52 48 52 57 55 26 34 41 10 10 8 8 6 5 6 8 8
72 81 70 82 90 68 71 80 63 48 57 61 55 49 58 68 73 75 76 79 76 72 80 87 91 98 99 100 99 92 95 97 89 70 71 29 23 13 11 8 6 10 7 5 6 6 5 9 12
76 77 67 74 74 59 73 74 65 52 54 61 60 62 70 71 77 78 82 81 66 82 71 78 90 98 98 94 98 98 96 90 67 60 40 21 14 12 10 8 7 5 6 6 4 4 6 7 14
82 85 74 87 96 95 67 62 57 55 53 61 63 74 67 83 86 85 76 50 37 40 53 37 50 92 87 90 68 41 21 15 14 36 9 8 8 6 5 6 7 6 4 5 7 6 8 9 14
75 76 94 97 85 80 60 69 67 45 41 50 66 76 68 79 63 51 42 40 40 35 30 20 21 26 62 75 71 61 59 41 15 8 9 10 8 6 6 4 5 8 7 6 9 12 10 13 16
82 98 90 86 93 68 56 54 46 45 46 57 63 66 70 71 51 47 48 49 42 38 30 19 18 18 24 19 20 28 42 21 16 14 15 15 18 21 23 19 21 20 18 15 13 15 15 18 18
73 72 79 94 93 94 96 64 56 56 51 61 60 60 68 59 56 54 56 53 46 42 25 28 32 36 30 31 33 32 30 29 32 36 45 48 54 59 55 48 45 42 36 29 24 26 23 24 28
Wind_Speed
5 5 5 8 6 2 4 6 9 6 4 4 9 9 7 3 2 1 5 5 4 6 8 9 9 10 11 12 12 11 10 10 9 8 9 10 9 11 11 10 10 8 7 5 5 6 6 6 5
5 4 5 8 7 3 4 9 8 6 2 1 5 8 7 3 3 4 8 7 1 1 3 5 7 9 12 15 15 15 14 13 13 12 10 10 10 10 11 11 11 11 9 8 6 5 6 6 6
6 5 5 6 8 4 5 9 5 5 5 2 4 5 5 2 2 4 7 4 0 1 3 4 5 6 10 16 18 18 18 17 16 16 14 12 11 10 11 11 12 12 11 10 8 7 5 5 5
7 7 8 12 11 4 4 3 8 5 5 5 7 2 4 1 1 3 2 4 6 7 7 8 9 9 10 12 18 21 21 21 20 19 18 16 15 13 12 11 12 12 12 12 11 9 7 6 5
7 9 12 13 11 8 5 6 8 9 7 6 8 6 5 4 3 3 5 4 7 9 10 9 8 7 7 9 13 20 24 23 23 23 22 20 19 17 16 13 12 11 11 12 12 11 9 7 6
8 9 9 13 12 9 6 6 8 9 5 6 5 8 10 9 8 8 9 10 10 10 9 10 10 9 10 11 12 15 21 26 27 26 25 24 23 21 20 18 15 13 12 12 12 12 11 9 7
8 9 12 13 13 11 8 8 9 9 7 8 9 11 14 14 14 12 10 11 10 11 11 10 11 12 13 14 15 17 18 23 28 30 29 28 26 25 23 21 20 17 15 14 13 13 12 11 10
9 10 10 12 12 9 9 10 8 10 13 13 14 12 16 16 16 19 19 17 15 14 15 15 15 15 15 15 16 18 19 19 25 29 33 32 30 29 27 25 24 22 20 18 17 16 15 14 12
10 10 8 10 9 8 10 11 11 9 12 16 17 17 17 16 18 21 24 23 24 21 20 20 20 19 18 19 19 18 17 20 24 28 31 35 35 33 31 29 27 26 24 22 21 20 19 17 16
11 11 8 9 11 14 14 15 16 13 12 18 22 21 22 21 21 23 24 25 26 26 26 25 22 21 22 24 23 21 20 20 21 26 31 34 36 36 35 33 31 29 28 27 26 24 23 22 19
15 16 13 15 18 19 16 17 19 17 16 18 20 26 27 27 27 27 28 28 30 30 29 30 30 27 27 28 28 27 25 25 26 24 28 33 36 38 38 37 35 33 32 31 30 29 27 25 23
17 17 16 16 18 20 20 21 19 19 18 21 23 24 27 33 35 35 36 36 36 36 34 32 31 32 31 32 32 35 29 28 27 25 26 29 34 38 39 38 38 37 35 33 33 32 30 30 28
15 18 19 20 21 19 22 21 24 21 18 22 23 22 25 28 31 37 40 42 43 43 42 42 38 35 34 31 33 31 28 25 25 24 24 26 31 36 40 40 41 40 38 37 36 34 34 33 32
19 21 21 20 19 21 22 19 20 21 23 20 18 17 20 24 30 31 33 36 38 40 41 40 40 39 38 34 36 32 29 27 25 26 27 27 28 32 36 41 43 43 43 42 40 38 37 37 37
18 19 17 18 19 22 20 16 15 17 14 13 16 21 25 33 35 36 37 38 38 37 36 35 35 33 35 39 36 33 28 25 26 30 30 29 25 23 32 38 42 44 45 45 44 42 42 42 42
22 23 17 11 13 17 19 16 10 11 19 23 23 25 26 32 33 34 33 34 35 37 37 35 34 34 28 31 32 31 25 27 27 27 29 26 24 23 26 28 35 42 46 46 45 45 45 44 45
18 16 17 15 17 16 15 19 14 19 24 23 22 22 24 25 28 28 30 31 33 33 33 33 33 32 31 24 27 27 27 27 29 25 25 25 26 27 30 32 33 34 40 46 47 46 47 48 47
14 15 17 19 19 23 24 23 19 19 23 22 19 19 22 22 24 26 28 31 33 33 33 33 30 25 20 21 28 31 31 32 30 28 27 27 27 31 32 33 35 36 38 39 41 41 44 50 52
21 22 24 25 20 25 23 27 24 25 23 16 16 17 18 22 22 22 23 26 27 29 30 29 29 24 22 24 29 32 35 35 33 31 30 29 30 32 36 37 34 35 36 40 41 43 43 46 47
21 23 26 24 13 21 22 28 26 11 9 17 14 15 22 21 23 23 22 23 24 24 25 25 25 26 27 29 33 36 38 36 33 32 30 30 32 36 38 35 34 34 35 36 39 43 43 43 44
17 20 22 20 20 21 19 4 10 8 17 17 15 21 18 20 24 25 25 24 22 20 21 22 24 27 30 34 34 36 36 36 31 30 28 30 33 37 39 35 33 34 35 36 38 41 44 46 47
22 20 15 15 15 7 11 7 18 19 21 19 18 19 17 21 22 24 24 24 22 24 26 26 25 28 32 36 36 35 29 34 30 28 30 29 31 38 38 35 33 32 33 35 37 39 42 45 46
14 12 13 14 15 18 9 9 10 17 19 21 16 15 17 18 16 18 20 25 25 25 24 32 30 28 31 35 40 38 38 30 25 27 29 29 35 38 40 38 38 37 35 34 35 37 39 41 44
9 6 9 14 13 8 10 14 8 11 11 14 18 17 15 14 15 17 19 22 26 31 30 36 34 32 32 41 40 42 32 27 22 27 27 31 37 37 38 41 40 37 36 35 36 36 37 38 40
15 7 3 3 3 5 4 9 19 26 26 20 13 10 11 12 14 14 15 17 18 20 26 30 30 34 36 32 35 30 26 25 27 30 28 36 34 36 36 38 37 37 35 35 36 37 36 37 37
17 18 9 6 4 1 7 9 10 17 19 19 8 4 6 10 10 13 13 15 16 16 18 19 19 16 23 25 23 27 25 30 29 26 33 35 31 35 37 38 40 38 36 35 35 36 37 37 36
13 17 19 13 13 5 10 18 27 27 26 20 10 2 4 5 7 9 11 9 11 13 13 16 16 16 11 11 13 18 20 20 22 29 31 29 32 35 36 39 38 37 37 35 35 35 35 37 36
18 7 7 12 4 6 7 11 17 21 20 14 10 6 4 6 5 5 8 12 14 17 18 17 17 15 16 14 17 21 25 24 23 25 27 32 34 33 35 35 36 32 33 35 35 33 33 35 35
20 19 15 11 9 4 6 10 16 14 13 11 12 10 11 9 8 9 11 14 17 20 22 23 20 20 18 18 19 20 24 27 24 24 25 29 30 30 30 30 30 30 31 32 34 33 32 32 33
22 24 25 13 7 11 6 23 19 19 16 15 14 14 14 13 11 13 15 16 18 22 26 23 19 18 18 20 19 17 19 20 21 21 21 23 23 23 24 25 26 28 29 29 30 29 30 33 32
Wind_Direction
291 291 286 276 278 209 116 119 68 60 74 62 93 103 154 99 133 82 10 9 306 257 241 235 240 246 248 244 233 226 229 231 237 268 301 320 338 347 354 354 356 358 351 337 311 289 267 258 262
284 278 274 277 257 224 148 165 74 49 59 199 113 105 83 82 34 27 63 52 58 248 248 256 263 265 262 250 246 240 236 241 245 246 263 291 311 330 341 346 348 352 353 351 345 322 299 286 283
269 253 252 261 259 246 162 184 170 18 340 295 152 114 86 63 67 91 80 58 23 284 283 280 288 286 274 263 254 248 245 245 247 252 255 262 283 300 318 333 339 341 345 350 351 343 324 308 299
262 246 240 244 249 232 177 212 239 270 282 264 200 155 138 148 96 28 77 12 342 324 320 304 301 292 278 270 259 255 252 252 252 253 256 259 264 273 288 304 321 329 332 334 339 342 341 332 313
256 249 242 255 252 253 229 239 249 257 264 260 212 198 192 212 215 263 281 292 311 310 313 315 322 314 302 286 267 262 257 254 256 256 256 257 259 262 266 275 290 305 316 319 322 327 329 336 332
248 247 246 258 268 267 264 260 241 250 280 267 210 199 206 200 214 245 264 275 285 290 301 305 308 315 318 315 294 273 265 260 255 253 254 255 257 258 257 260 267 278 291 301 305 308 312 322 322
249 247 256 267 274 277 273 255 239 233 239 247 234 216 223 221 216 224 242 260 276 281 282 279 284 290 298 301 295 292 289 268 261 257 253 252 253 255 255 255 258 262 268 277 283 287 294 299 302
239 248 262 270 276 285 272 253 232 216 225 232 239 224 223 228 224 222 222 229 242 262 271 278 281 286 293 298 297 288 280 280 268 262 257 254 251 252 253 253 253 255 257 263 270 273 277 281 283
238 242 263 271 274 269 264 265 271 270 252 233 240 246 245 239 235 236 241 243 248 250 262 272 275 278 285 292 297 297 293 281 274 267 258 256 253 251 250 251 252 252 253 256 261 266 268 269 270
236 254 265 266 264 262 269 278 281 274 250 246 253 249 253 253 249 247 248 247 250 252 250 252 261 272 280 288 294 294 295 292 293 271 264 255 252 252 251 250 249 250 251 251 253 257 261 263 265
264 268 274 276 275 279 279 279 284 286 270 271 256 248 250 254 257 258 259 259 259 259 260 263 267 268 275 282 288 292 294 298 302 285 263 259 253 248 250 249 249 250 250 251 252 254 258 263 264
267 277 277 280 283 289 291 291 284 281 289 278 273 264 253 247 248 252 256 259 262 265 268 267 266 267 266 272 280 284 289 299 303 295 272 258 254 250 247 247 248 248 249 250 251 252 254 258 260
271 275 283 288 289 289 288 294 296 299 287 285 286 277 272 268 260 255 256 256 258 261 264 269 270 270 271 266 265 275 278 289 296 300 282 276 260 251 247 244 244 244 246 246 248 250 251 253 257
280 282 286 289 289 289 288 287 291 293 292 285 281 290 290 281 272 270 268 266 266 266 267 269 269 270 267 265 268 266 271 273 284 290 287 279 274 257 250 248 247 247 246 246 245 246 247 250 252
277 277 284 291 292 283 282 287 292 282 267 274 289 293 285 280 280 282 283 281 278 274 270 266 263 263 260 259 263 264 274 276 279 286 283 276 273 268 258 252 250 251 250 249 248 246 247 248 248
279 290 296 291 286 280 285 284 266 242 273 279 279 282 281 278 282 284 285 285 284 281 275 270 260 257 262 261 259 263 261 268 276 283 287 283 282 283 284 269 258 251 251 251 251 251 251 251 251
279 278 287 285 279 282 299 287 281 287 295 295 293 287 278 283 285 286 286 285 286 286 285 280 269 262 260 258 253 255 255 259 267 277 281 280 285 292 294 288 277 265 258 254 254 253 254 254 254
276 279 279 281 280 288 290 290 293 299 287 298 293 286 285 283 281 283 282 283 283 284 284 285 286 283 272 261 245 248 248 251 259 266 272 277 282 287 294 297 281 268 267 265 258 255 253 253 258
272 277 279 282 298 294 297 304 310 296 296 280 289 279 290 292 288 283 280 279 283 284 282 282 282 281 273 256 247 249 248 249 252 258 263 272 280 290 294 295 284 273 264 261 262 262 259 258 256
271 276 280 288 288 296 305 307 298 277 267 301 285 287 304 292 291 291 288 284 282 280 279 277 276 273 261 255 249 247 249 244 248 255 264 272 280 287 298 292 284 277 271 265 261 260 260 260 260
268 279 284 291 298 297 305 307 197 252 293 280 277 296 293 296 295 294 294 295 298 293 280 273 269 263 259 252 247 244 244 248 251 260 265 273 280 289 292 288 284 279 275 272 268 265 263 260 260
276 277 279 288 305 295 308 296 234 265 259 254 273 290 293 306 308 302 298 303 301 305 291 285 271 265 265 254 244 242 241 245 244 253 266 272 281 287 289 286 284 280 275 272 268 266 265 264 262
266 266 278 287 290 294 276 265 237 230 243 277 299 309 317 311 315 314 301 300 290 293 290 289 259 263 259 248 252 249 235 233 251 257 260 264 277 285 282 285 280 277 276 273 269 265 263 263 264
247 235 279 288 287 271 251 223 241 243 261 308 322 328 330 347 345 332 318 298 291 278 288 280 269 255 258 256 253 252 257 253 261 255 265 268 275 279 277 283 280 274 274 271 272 269 266 263 262
238 213 281 259 189 256 235 223 256 282 287 301 317 330 2 4 345 337 331 326 320 312 292 284 277 261 258 258 264 266 254 247 256 259 258 271 274 276 275 278 278 274 274 273 272 272 269 268 264
238 225 210 241 210 233 226 243 261 268 279 293 297 334 22 5 9 10 14 359 2 4 353 327 315 296 274 265 264 259 244 242 247 253 270 272 274 276 278 277 277 275 272 273 272 273 272 270 267
227 221 240 251 258 254 245 258 265 270 275 271 271 250 353 345 345 335 335 351 3 3 345 327 335 296 294 309 301 295 283 277 276 273 275 285 286 284 281 277 274 272 273 273 271 270 269 270 268
221 234 195 206 235 234 236 251 251 275 285 271 250 243 270 276 307 334 338 339 339 342 337 326 315 301 292 283 281 286 291 291 289 289 288 292 290 289 285 282 278 276 271 271 273 271 269 267 265
219 218 221 230 225 254 271 258 284 285 275 245 242 252 259 265 283 301 312 320 324 328 326 321 309 302 300 293 290 285 282 292 297 294 293 290 292 291 289 286 283 283 278 272 271 273 271 269 264
238 244 242 225 229 223 266 270 279 272 274 238 236 245 253 236 270 286 299 308 317 321 324 321 317 312 307 308 302 297 299 302 303 301 302 301 302 305 299 295 293 289 285 279 275 273 271 270 267